Probability
26 39 42 52 52 61 68 58 68 65 55 52 48 48 45 52 52 35 32 26 23 16 13 13 10 6 3 3 3 0 0 0 0 0 0 0 0 0 0 0 0 0 0
26 32 35 55 58 65 65 61 71 71 65 52 42 32 39 39 39 35 29 19 16 13 10 6 6 10 3 3 0 3 0 0 3 0 0 0 0 0 0 0 0 0 0
26 32 39 52 48 58 58 58 65 71 61 52 45 35 32 32 32 26 23 19 19 13 13 6 13 13 6 6 6 3 0 0 0 0 0 0 0 0 0 0 0 0 0
32 39 35 45 45 45 48 52 48 58 52 45 35 29 42 39 39 29 23 23 19 13 13 10 13 13 10 3 3 0 0 0 0 0 0 0 0 0 0 0 0 0 0
35 39 39 45 45 45 45 45 48 52 52 48 42 42 32 39 32 29 23 26 23 23 16 13 16 13 6 6 3 0 0 0 0 0 0 0 0 0 0 0 0 0 0
35 39 32 45 45 45 45 45 45 48 45 45 45 39 29 32 32 29 29 32 29 26 16 16 19 16 16 13 6 0 3 3 0 0 0 0 0 0 0 0 0 0 0
29 26 23 29 42 42 45 45 45 48 45 42 42 39 32 26 35 32 35 45 29 26 16 13 16 13 23 16 6 6 6 3 0 0 0 0 0 0 0 0 0 0 0
19 23 23 23 29 29 32 35 45 45 39 39 39 42 35 35 35 35 32 32 32 29 19 16 10 16 23 16 3 10 10 0 0 0 0 0 0 0 0 0 0 0 0
16 16 16 19 16 13 16 23 29 29 32 29 35 35 29 26 35 35 32 32 26 35 35 26 23 23 19 13 13 10 0 0 0 0 0 0 0 0 0 0 0 0 0
10 13 13 13 13 10 6 6 10 19 26 29 29 13 13 13 13 19 13 16 29 29 35 35 19 19 26 16 6 0 0 0 0 0 0 0 0 0 0 0 0 0 0
6 6 10 10 13 13 10 6 3 3 13 13 6 3 3 13 13 16 0 6 13 16 19 26 19 16 6 0 0 0 0 0 0 0 3 0 0 0 0 0 0 0 0
3 3 6 6 6 10 6 10 10 10 10 13 13 13 13 13 16 6 0 0 6 6 10 13 16 6 0 0 0 0 0 0 0 0 0 0 0 0 0 0 0 3 0
3 3 3 3 6 6 6 10 10 10 13 6 6 10 13 13 16 16 16 0 0 0 6 10 6 3 3 3 3 0 0 0 0 0 0 0 0 0 0 0 3 3 0
3 3 3 3 3 3 6 10 6 10 6 13 10 6 13 13 13 13 16 19 16 13 19 16 16 0 3 3 0 0 0 0 0 0 0 0 0 0 0 0 0 6 3
0 0 0 3 3 3 3 6 6 6 6 6 10 10 13 19 19 16 13 16 13 13 16 16 13 3 6 0 0 0 0 0 0 0 0 0 0 0 0 0 0 0 0
0 0 0 0 0 3 3 3 0 0 6 3 6 6 6 6 19 16 13 16 10 10 10 10 6 3 0 0 0 0 0 0 0 0 0 0 0 0 0 0 0 0 0
0 0 0 0 0 0 0 0 0 0 0 0 6 3 3 6 6 6 10 13 10 10 6 3 0 0 0 0 0 0 0 0 0 0 0 0 0 0 0 0 0 3 0
0 0 0 0 0 0 0 0 0 0 0 0 0 0 0 3 6 6 3 3 3 3 6 6 6 0 0 0 0 0 0 3 3 0 0 0 0 0 0 0 0 0 0
0 0 0 0 0 0 0 0 0 0 0 0 0 0 0 0 3 6 6 0 0 6 6 0 0 0 0 0 0 0 3 3 3 0 0 0 0 0 0 0 0 0 0
0 0 0 0 0 0 0 0 0 0 0 0 0 0 0 0 0 3 3 3 3 3 3 0 0 0 0 0 0 0 0 3 3 3 0 0 0 0 0 0 0 0 0
0 0 0 0 0 0 0 0 0 0 0 0 0 0 0 0 0 0 0 0 0 0 3 0 0 0 0 0 0 0 0 0 0 0 0 0 0 0 0 0 0 0 0
0 0 0 0 0 0 0 0 0 0 0 0 0 0 0 0 0 0 0 3 3 0 0 0 0 0 0 0 0 0 0 0 0 0 0 0 0 0 0 0 0 0 0
0 0 0 0 0 0 0 0 0 0 0 0 0 0 0 0 0 0 0 0 0 0 0 0 0 0 0 0 0 0 0 0 0 0 0 0 0 0 0 0 0 0 0
0 0 0 0 0 0 0 0 0 0 0 0 0 0 0 0 0 0 0 0 0 0 0 0 0 0 0 0 0 0 0 0 0 0 0 0 0 0 0 0 0 0 0
0 0 0 0 0 0 0 0 0 0 0 0 0 0 0 0 0 0 0 0 0 0 0 0 0 0 0 0 0 0 0 0 0 0 0 0 0 0 0 0 0 0 0
0 0 0 0 0 0 0 0 0 0 0 0 0 0 0 0 0 0 0 0 0 0 0 0 0 0 0 0 0 0 0 0 0 0 0 0 0 0 0 0 0 0 0
Height
5873 5874 5875 5876 5876 5877 5877 5877 5878 5878 5878 5878 5878 5878 5878 5878 5878 5878 5877 5877 5877 5876 5876 5875 5875 5875 5875 5874 5874 5874 5873 5873 5872 5872 5872 5871 5871 5871 5870 5870 5870 5869 5869
5871 5871 5872 5873 5874 5874 5875 5875 5875 5876 5876 5876 5876 5876 5876 5876 5876 5876 5876 5875 5875 5874 5874 5874 5873 5873 5873 5872 5872 5872 5871 5871 5870 5870 5870 5869 5869 5869 5868 5868 5868 5868 5867
5867 5868 5869 5870 5871 5872 5872 5873 5873 5873 5873 5874 5874 5874 5874 5874 5874 5874 5873 5873 5873 5872 5872 5872 5871 5871 5870 5870 5870 5869 5869 5869 5868 5868 5867 5867 5867 5866 5866 5866 5865 5865 5865
5864 5865 5866 5867 5868 5869 5869 5870 5870 5870 5871 5871 5871 5871 5871 5871 5871 5871 5871 5870 5870 5870 5869 5869 5869 5868 5868 5867 5867 5867 5866 5866 5866 5865 5865 5864 5864 5864 5864 5863 5863 5862 5862
5861 5862 5863 5864 5865 5865 5866 5867 5867 5867 5868 5868 5868 5868 5868 5868 5868 5868 5867 5867 5867 5867 5866 5866 5865 5865 5865 5864 5864 5863 5863 5863 5862 5862 5862 5861 5861 5861 5861 5860 5860 5859 5859
5857 5858 5859 5860 5861 5862 5862 5863 5864 5864 5864 5864 5865 5865 5865 5864 5864 5864 5864 5864 5863 5863 5863 5862 5862 5861 5861 5861 5860 5860 5859 5859 5859 5858 5858 5858 5858 5857 5857 5857 5857 5856 5856
5853 5854 5855 5856 5857 5857 5858 5859 5860 5860 5860 5861 5861 5861 5861 5861 5860 5860 5860 5860 5859 5859 5858 5858 5858 5857 5857 5857 5856 5856 5856 5855 5855 5854 5854 5854 5854 5853 5853 5853 5853 5852 5852
5848 5849 5850 5851 5852 5853 5854 5855 5855 5856 5856 5856 5856 5856 5856 5856 5856 5856 5856 5856 5855 5855 5854 5854 5853 5853 5853 5852 5852 5851 5851 5851 5850 5850 5849 5849 5849 5849 5849 5848 5848 5848 5848
5844 5845 5846 5847 5848 5849 5850 5850 5851 5851 5851 5852 5852 5852 5852 5851 5851 5851 5851 5851 5850 5850 5849 5849 5848 5848 5848 5847 5847 5846 5846 5845 5845 5845 5844 5844 5844 5844 5844 5843 5843 5843 5843
5839 5840 5841 5842 5843 5844 5845 5846 5846 5847 5847 5847 5847 5847 5846 5846 5846 5846 5846 5845 5845 5844 5844 5843 5843 5843 5842 5842 5841 5841 5840 5840 5840 5839 5839 5839 5839 5838 5838 5838 5838 5838 5837
5834 5836 5837 5838 5839 5839 5840 5841 5841 5841 5841 5841 5841 5841 5840 5840 5840 5840 5840 5839 5839 5838 5838 5837 5837 5836 5836 5835 5835 5834 5834 5833 5833 5833 5833 5833 5832 5832 5832 5832 5832 5832 5832
5829 5831 5832 5833 5833 5834 5835 5835 5835 5836 5836 5835 5835 5834 5834 5833 5833 5833 5833 5833 5832 5832 5831 5830 5830 5829 5828 5828 5828 5827 5826 5826 5826 5826 5826 5826 5826 5825 5826 5826 5826 5825 5825
5823 5825 5826 5827 5828 5828 5829 5829 5829 5829 5829 5829 5829 5828 5827 5826 5826 5826 5825 5825 5825 5824 5823 5823 5822 5821 5821 5820 5820 5819 5819 5819 5818 5818 5819 5819 5818 5818 5818 5818 5818 5818 5818
5818 5819 5821 5822 5822 5823 5823 5823 5823 5823 5823 5823 5822 5821 5820 5819 5819 5818 5818 5817 5817 5816 5815 5815 5814 5813 5812 5812 5812 5811 5811 5810 5810 5810 5811 5811 5810 5810 5810 5810 5810 5811 5811
5812 5813 5815 5815 5816 5817 5817 5817 5817 5817 5816 5816 5815 5814 5813 5812 5811 5810 5810 5809 5808 5808 5807 5806 5805 5805 5804 5803 5803 5802 5802 5802 5801 5801 5801 5802 5802 5802 5802 5802 5802 5802 5803
5806 5807 5808 5809 5810 5810 5810 5811 5811 5810 5810 5809 5808 5807 5806 5805 5804 5803 5802 5801 5800 5799 5798 5797 5796 5796 5795 5794 5793 5793 5792 5792 5792 5792 5792 5792 5792 5792 5792 5792 5792 5793 5794
5800 5801 5802 5803 5803 5804 5804 5804 5804 5803 5803 5802 5801 5800 5799 5797 5796 5795 5794 5792 5791 5790 5788 5787 5787 5786 5785 5784 5783 5783 5782 5782 5782 5781 5781 5781 5782 5781 5782 5782 5782 5783 5784
5793 5794 5795 5796 5796 5797 5797 5797 5797 5796 5795 5795 5794 5793 5791 5790 5789 5787 5786 5784 5782 5780 5779 5778 5776 5775 5775 5774 5773 5772 5772 5771 5771 5771 5770 5770 5770 5770 5770 5771 5771 5772 5773
5786 5787 5788 5789 5789 5790 5790 5790 5789 5789 5788 5787 5786 5785 5784 5782 5781 5779 5777 5775 5773 5771 5770 5768 5766 5765 5764 5763 5762 5762 5761 5761 5760 5760 5760 5759 5759 5759 5759 5759 5760 5761 5762
5779 5780 5781 5782 5782 5783 5782 5782 5782 5781 5781 5780 5779 5777 5776 5774 5772 5771 5769 5767 5764 5762 5760 5758 5756 5754 5753 5752 5751 5751 5750 5750 5749 5749 5748 5748 5748 5748 5748 5748 5748 5749 5749
5773 5773 5774 5775 5775 5775 5775 5775 5774 5773 5773 5772 5770 5769 5767 5766 5764 5762 5760 5757 5755 5752 5750 5747 5746 5744 5743 5741 5741 5740 5740 5739 5738 5737 5736 5736 5736 5736 5736 5736 5737 5738 5738
5766 5766 5767 5767 5768 5768 5767 5767 5766 5766 5764 5763 5762 5761 5759 5757 5755 5753 5751 5748 5746 5743 5740 5738 5736 5734 5733 5731 5730 5729 5729 5729 5727 5726 5725 5724 5724 5724 5724 5724 5725 5726 5727
5759 5759 5760 5760 5760 5760 5759 5759 5758 5758 5756 5755 5754 5752 5751 5749 5747 5744 5742 5740 5737 5734 5731 5729 5726 5724 5722 5721 5720 5719 5718 5718 5717 5716 5714 5713 5713 5713 5712 5712 5713 5714 5714
5752 5752 5752 5752 5752 5752 5751 5751 5750 5749 5748 5747 5745 5744 5742 5740 5738 5736 5733 5731 5728 5725 5722 5719 5717 5714 5713 5711 5710 5708 5708 5707 5706 5706 5704 5702 5701 5701 5701 5701 5701 5702 5702
5744 5744 5744 5744 5744 5744 5743 5742 5742 5741 5740 5738 5737 5735 5734 5732 5730 5727 5725 5722 5719 5716 5713 5710 5707 5705 5703 5702 5700 5699 5698 5696 5695 5695 5694 5693 5691 5690 5689 5689 5689 5690 5690
5736 5736 5736 5736 5735 5735 5735 5734 5733 5732 5731 5730 5728 5727 5725 5723 5721 5719 5716 5714 5711 5707 5704 5702 5699 5696 5694 5693 5691 5689 5688 5687 5685 5684 5683 5682 5681 5680 5679 5678 5678 5678 5678
Wind_Speed
15 14 14 13 13 13 12 12 12 12 12 12 12 12 11 11 10 9 9 9 9 9 9 10 10 10 10 10 10 10 10 10 10 10 10 9 9 8 8 8 8 8 7
16 16 15 15 14 14 14 14 13 14 14 13 13 13 13 13 13 12 12 11 11 11 11 11 11 12 12 12 12 12 12 12 12 12 12 12 11 11 11 11 10 10 10
18 17 17 16 16 16 15 15 15 15 15 15 15 15 15 15 15 15 14 14 14 13 13 13 14 14 14 14 14 14 14 14 14 14 13 13 13 13 13 13 13 13 12
19 19 18 18 17 17 17 17 16 16 16 16 16 16 16 16 16 16 16 16 16 16 16 16 16 16 16 16 16 16 16 16 16 16 16 15 15 15 15 15 15 15 15
20 20 20 19 19 19 18 18 18 17 17 17 17 17 17 17 17 18 18 18 18 17 17 17 18 18 18 18 18 18 18 18 18 18 18 18 17 17 17 17 17 17 17
22 21 21 21 21 20 20 19 19 19 19 19 18 19 19 18 18 19 19 19 19 20 20 20 20 20 20 20 19 19 19 20 20 20 20 20 20 20 19 19 19 19 20
23 23 23 22 22 22 21 21 20 20 21 21 21 20 21 21 20 20 21 21 21 21 22 22 22 22 22 22 22 22 21 21 21 22 22 22 22 22 22 21 21 21 22
24 24 24 23 23 23 23 22 22 22 22 22 22 22 22 23 23 23 22 22 23 23 23 23 23 23 24 24 24 24 24 24 24 24 24 24 24 24 24 24 24 24 24
26 25 25 25 25 24 24 24 24 24 24 24 24 24 25 25 25 25 25 25 25 25 25 26 26 26 26 26 26 26 26 26 26 26 26 26 26 26 26 26 26 26 26
27 26 26 26 25 25 25 25 26 26 26 26 26 26 27 27 27 27 27 28 28 28 28 28 28 28 29 29 29 29 29 29 29 28 28 28 28 28 28 28 28 28 28
27 27 27 27 27 27 27 27 27 27 28 28 28 29 29 30 30 30 30 30 31 31 31 31 32 32 32 32 32 32 32 32 32 32 31 31 30 30 30 30 30 30 30
29 29 28 29 28 28 28 28 29 29 29 30 30 30 30 31 32 32 32 32 33 33 33 34 34 34 34 34 35 35 35 35 35 34 34 34 34 33 33 33 33 32 32
30 30 29 29 30 30 30 30 30 30 31 31 31 31 32 32 33 34 34 34 34 35 35 36 36 36 36 36 37 36 36 37 37 36 35 35 36 36 36 36 35 35 34
30 30 30 30 30 30 30 31 31 31 32 32 32 32 33 33 34 35 35 35 36 36 36 37 38 38 38 39 39 39 39 38 39 39 38 38 38 38 38 38 38 38 37
31 30 30 30 31 31 31 32 32 32 32 33 33 33 33 34 34 35 36 37 37 38 38 38 38 39 39 40 41 41 42 42 42 42 41 41 41 41 41 41 40 40 39
31 31 31 31 31 32 32 32 32 32 32 33 33 33 34 34 35 36 37 39 39 40 40 40 40 40 40 41 42 42 43 43 44 44 44 44 43 43 43 43 43 42 41
32 32 32 32 32 32 32 32 32 32 33 33 33 33 34 34 35 36 37 38 39 41 42 42 42 42 43 43 43 44 45 45 45 46 46 45 45 45 45 45 45 44 44
33 33 33 33 33 33 33 32 32 32 33 33 34 34 35 35 36 36 38 38 40 41 43 44 44 45 45 46 46 45 45 46 45 46 46 46 46 46 46 47 47 46 46
33 33 33 33 33 33 33 33 33 34 34 34 35 35 36 36 37 38 39 39 40 41 42 44 45 46 46 46 46 45 45 45 46 46 47 47 47 46 46 46 47 48 48
34 34 34 33 33 33 33 34 34 35 35 35 36 36 37 38 38 39 39 39 41 42 43 44 44 44 44 45 44 44 45 45 46 47 47 48 49 49 47 46 46 46 47
34 33 33 33 33 34 34 34 35 35 35 36 36 37 37 38 38 38 39 40 40 41 41 42 42 42 42 43 44 44 45 45 46 47 48 49 49 49 49 47 46 46 47
33 33 33 34 34 35 35 35 35 35 36 36 36 36 37 37 38 38 39 39 39 40 40 40 41 40 41 41 43 44 45 45 46 47 48 48 48 48 49 50 49 47 47
34 34 34 34 35 35 35 35 35 36 36 36 36 37 37 37 37 37 38 38 38 38 39 40 40 40 40 41 41 42 43 44 45 45 47 47 47 47 48 50 51 50 50
34 34 35 35 35 35 35 36 36 36 36 36 36 36 36 36 36 37 37 37 37 38 38 38 39 40 40 40 40 41 40 41 42 43 43 45 46 47 48 48 49 50 51
34 35 36 36 36 36 36 36 36 36 36 36 36 36 36 36 36 36 36 36 37 37 37 37 38 39 39 39 39 39 39 39 40 40 41 42 44 45 47 47 48 48 49
35 36 36 36 37 37 36 36 36 36 36 35 35 36 36 36 36 36 36 36 36 36 36 36 37 37 37 38 38 39 40 40 40 40 41 42 42 43 44 45 46 47 47
Wind_Direction
246 248 248 249 251 252 253 254 256 257 259 261 262 264 265 266 265 266 267 269 272 273 272 271 271 271 272 272 272 271 270 269 268 268 268 269 270 271 271 270 271 273 275
248 249 250 249 251 252 252 252 255 257 259 260 261 263 264 265 266 267 268 269 271 271 272 273 273 273 271 271 271 271 269 268 268 268 269 268 268 268 269 269 268 270 272
249 250 250 250 251 253 253 254 255 257 259 261 262 263 264 265 266 268 269 269 270 271 271 273 274 274 273 272 272 272 271 269 269 268 268 268 267 267 267 268 267 268 269
249 250 251 251 252 253 255 256 258 259 261 262 264 265 265 266 267 268 269 269 270 270 271 271 273 273 274 273 273 272 271 271 270 270 269 269 268 268 267 267 267 268 268
249 251 252 253 254 255 256 257 258 260 261 263 265 266 266 267 268 269 270 271 271 271 271 271 272 272 272 273 273 272 271 271 271 271 271 270 270 269 268 268 267 268 268
249 251 252 254 255 256 258 258 259 261 262 264 266 268 269 269 269 270 271 271 271 271 271 272 272 273 273 273 273 273 272 271 271 271 272 271 270 269 269 269 269 269 269
250 252 253 254 255 257 257 259 260 262 264 265 266 268 269 270 270 271 271 271 271 272 272 272 272 272 273 273 273 273 273 273 272 272 271 271 270 269 269 269 269 269 269
250 252 253 254 256 258 258 260 262 264 265 266 267 268 269 270 270 270 271 272 272 273 273 273 272 272 273 273 273 273 272 272 272 271 271 271 270 270 269 269 269 270 270
250 252 254 256 257 258 259 260 262 265 267 268 269 270 270 270 270 270 270 271 273 273 273 274 274 274 274 274 274 273 273 273 272 272 271 271 271 270 270 269 270 270 270
249 252 254 256 258 259 259 261 263 265 267 268 270 271 272 271 270 270 271 272 273 273 273 273 274 275 275 274 274 274 274 273 273 272 272 271 271 271 271 271 270 269 270
249 251 254 256 257 259 261 263 264 266 267 269 271 272 272 272 272 272 272 272 273 274 273 274 274 274 274 274 274 274 274 274 272 271 270 271 271 271 271 271 270 270 269
249 251 254 256 258 260 262 263 265 266 268 269 271 273 273 273 273 273 273 273 273 274 275 274 275 274 274 274 273 273 273 273 273 272 270 270 271 271 271 270 270 269 269
251 252 254 257 259 261 262 264 265 267 268 271 273 274 274 274 274 274 274 274 274 274 275 274 273 273 273 273 273 272 272 272 272 272 272 271 271 272 271 270 269 269 269
251 253 255 258 259 261 263 264 266 268 270 271 274 275 275 275 275 275 274 274 274 275 275 275 274 273 273 273 272 271 271 271 271 271 272 272 272 272 271 271 270 269 268
252 254 256 258 260 262 264 265 268 270 272 274 275 276 276 276 277 276 275 275 274 275 275 274 274 273 273 273 272 271 270 270 270 270 271 271 272 272 271 271 270 268 267
252 255 257 259 260 262 265 267 269 271 273 274 276 276 277 276 277 277 277 276 275 275 274 274 274 274 274 273 273 272 271 271 271 271 270 270 271 271 270 269 268 268 266
253 256 258 260 262 264 266 268 270 272 273 274 275 277 278 279 279 280 280 280 277 276 275 275 275 275 275 274 274 273 272 271 271 270 269 269 270 269 268 267 266 266 266
255 257 259 261 263 264 265 268 269 271 273 274 276 277 279 280 280 280 281 282 280 278 277 276 276 275 275 275 274 274 273 272 270 269 268 268 269 268 268 266 265 264 264
256 258 261 262 263 264 266 268 270 271 273 275 277 278 280 281 281 282 282 282 281 280 279 278 277 277 276 275 274 273 273 272 270 269 268 267 267 268 268 266 264 264 263
257 260 261 262 264 265 267 269 271 273 274 276 278 279 281 281 282 283 283 283 283 282 281 280 279 278 276 275 274 273 273 272 271 270 269 268 266 266 266 265 264 263 263
258 260 262 263 264 266 268 270 272 273 275 277 279 281 282 282 283 283 284 285 285 285 283 282 281 279 278 276 275 274 273 272 272 271 270 269 267 266 265 264 265 264 264
258 261 262 264 265 267 269 271 272 274 276 278 279 281 281 283 283 284 286 286 286 286 284 283 282 280 280 278 277 276 274 273 273 272 270 269 268 267 266 265 264 264 263
260 262 264 265 267 268 270 272 273 275 277 278 279 281 282 283 284 285 286 287 287 286 285 283 282 281 281 280 279 277 276 274 274 273 272 270 269 267 266 266 266 265 264
262 264 266 267 267 268 270 272 274 275 276 278 279 281 283 284 285 286 287 288 288 286 286 285 283 282 282 280 279 278 278 277 276 274 272 271 270 269 267 266 266 266 266
264 265 266 267 268 269 271 273 274 275 276 277 279 281 283 284 286 286 287 288 288 288 287 285 284 283 282 281 280 279 279 278 278 276 275 274 272 271 269 267 267 266 266
266 266 267 268 269 270 272 273 273 275 276 277 279 280 282 284 285 285 286 288 288 288 288 287 286 285 283 282 281 280 279 278 279 278 277 275 275 273 271 270 268 267 266